Regional Weather Roundup
Issued by NWS

Home | Current Version | Previous Version | Text Only | Print | Product List | Glossary On
Versions: 1 2 3 4 5 6 7 8 9 10 11 12 13 14 15 16 17 18 19 20 21 22 23 24 25 26 27 28 29 30 31 32 33 34 35 36 37 38 39 40 41 42 43 44 45 46 47 48 49 50
000
ASUS45 KREV 291410
RWRNV
NEVADA REGIONAL WEATHER ROUNDUP
NATIONAL WEATHER SERVICE RENO NV
700 AM PDT SAT AUG 29 2015

NOTE: "FAIR" INDICATES FEW OR NO CLOUDS BELOW 12,000 FEET WITH NO
SIGNIFICANT WEATHER AND/OR OBSTRUCTIONS TO VISIBILITY.

NVZ001-003-004-291500-
WESTERN NEVADA

CITY           SKY/WX    TMP DP  RH WIND       PRES   REMARKS
RENO           CLOUDY    72  45  37 SE8       30.02R
CARSON CITY    FAIR      70  41  35 S7        30.05R
MINDEN         FAIR      68  41  37 S17G23    30.04S
SLIDE MTN        N/A     46  37  71 SW37        N/A
PYRAMID LAKE     N/A     75 N/A N/A S8          N/A
FALLON         CLOUDY    62  39  42 S6        29.98R
LOVELOCK       CLOUDY    58  38  47 CALM      29.98R
HAWTHORNE      CLEAR     81  37  21 SW20G28   29.98S
$$

NVZ002-CAZ072-073-291500-
NORTHERN AND CENTRAL SIERRA

CITY           SKY/WX    TMP DP  RH WIND       PRES   REMARKS
S. LAKE TAHOE  MOCLDY    63  43  48 S13G20    30.14S
TRUCKEE        MOCLDY    61  45  55 S14G23    30.13S
SQUAW VLY 8000   N/A     50  39  66 S5          N/A
SUSANVILLE     CLEAR     64  39  39 W3        30.03R
BLUE CANYON    PTCLDY    54  43  66 SE6       30.14S
MAMMOTH LAKES  FAIR      66  32  28 S3        30.24R
BRIDGEPORT     FAIR      59  38  45 CALM      30.19R
$$

NVZ030-031-036-291500-
NORTHERN NEVADA

CITY           SKY/WX    TMP DP  RH WIND       PRES   REMARKS
ELKO           CLOUDY    59  45  59 E7        30.06R
WINNEMUCCA     CLOUDY    57  34  41 S7        29.99
WENDOVER       MOSUNNY   70  41  35 NE9       30.04R
$$

NVZ035-037-291500-
CENTRAL NEVADA

CITY           SKY/WX    TMP DP  RH WIND       PRES   REMARKS
ELY            MOCLDY    57  42  57 S10       30.21R
EUREKA           N/A     68  41  37 S12       30.13R
$$

NVZ013-014-291500-
SOUTH CENTRAL NEVADA

CITY           SKY/WX    TMP DP  RH WIND       PRES   REMARKS
TONOPAH        MOCLDY    63  38  39 NW5       30.12R
$$

NVZ017-020-022-291500-
SOUTHERN NEVADA

CITY           SKY/WX    TMP DP  RH WIND       PRES   REMARKS
LAS VEGAS      PTCLDY    88  46  23 SW5       29.87R
N. LAS VEGAS   CLEAR     82  53  36 NW5       29.90R
NELLIS AFB     CLEAR     82  50  33 E5        29.89R
HENDERSON      CLEAR     87  48  25 S12       29.95R
MERCURY        CLEAR     80  44  27 NE3       29.98R
$$


USA.gov is the U.S. government's official web portal to all federal, state and local government web resources and services.